Regional Weather Roundup
Issued by NWS Charleston, SC

Current Version | Previous Version | Text Only | Print | Product List | Glossary Off
Versions: 1 2 3 4 5 6 7 8 9 10 11 12 13 14 15 16 17 18 19 20 21 22 23 24 25 26 27 28 29 30 31 32 33 34 35 36 37 38 39 40 41 42 43 44 45 46 47 48 49 50

000
ASUS42 KCHS 250212
RWRCHS

Regional Weather Roundup
National Weather Service Charleston SC
1000 PM EDT TUE APR 24 2018

NOTE: "fair" indicates few or no clouds below 12,000 feet with no
significant weather and/or obstructions to visibility.

Not all stations are quality controlled. Use data with caution,
especially dewpoint observations.

SCZ027-030-031-034>040-042>050-250300-
...Southeast South Carolina...

CITY           SKY/WX    TMP DP  RH WIND       PRES   REMARKS
N Charleston   FAIR      65  60  84 SW9       29.85R
Waterfront Prk   N/A     66  62  87 SW6       29.70R
Mount Pleasant FAIR      66  61  82 SW6       29.85R
Johns Island   FAIR      66  63  88 SW7       29.86R
Pinopolis        N/A     68  61  77 SW6       29.74
Moncks Corner  CLOUDY    66  59  77 SW8       29.84R
Summerville    MOCLDY    64  61  88 S3        29.85R
Beaufort MCAS  FAIR      67  57  70 W8        29.86R
Beaufort Arpt  FAIR      68  55  64 W9        29.86R
Hilton Head Is MOCLDY    70  57  64 SW6       29.88R
Walterboro     MOCLDY    66  55  68 CALM      29.86R
Allendale      CLOUDY    66  55  68 CALM      29.85R

...Southern Midlands and Pee Dee...

CITY           SKY/WX    TMP DP  RH WIND       PRES   REMARKS
Georgetown     FAIR      63  63 100 S8        29.85R
Kingstree      FAIR      68  55  64 S3        29.82R
Orangeburg     MOCLDY    66  56  70 SW9       29.83R
Barnwell       CLOUDY    64  57  77 CALM      29.85R
Aiken          CLOUDY    63  57  82 SW8       29.87R
Manning        MOCLDY    63  52  67 SW5       29.82R
Columbia       CLOUDY    68  60  75 W8        29.81R
Sumter         FAIR      65  54  69 SW9       29.79
Florence       CLOUDY    69  61  75 S5        29.80R
Myrtle Beach   MOCLDY    65  62  90 SW13      29.83R
N Myrtle Beach FAIR      64  62  93 S9        29.82R

$$

GAZ063-065-086>088-099>101-113>116-118-119-134>141-150-250300-
...Southeast Georgia...

CITY           SKY/WX    TMP DP  RH WIND       PRES   REMARKS
Savannah Arpt  FAIR      67  55  65 SW3       29.88R
Hunter AAF     FAIR      65  53  65 W5        29.86R
Fort Stewart   CLOUDY    64  57  79 CALM      29.87R
Statesboro     CLOUDY    65  55  69 CALM      29.87R
Sylvania       CLOUDY    67  59  77 CALM      29.87R
Claxton        MOCLDY    63  60  91 CALM      29.88R

...CSRA, Central and far Southeast Georgia...

CITY           SKY/WX    TMP DP  RH WIND       PRES   REMARKS
Thomson        CLOUDY    64  55  72 NW8       29.90R
Augusta-Bush   CLOUDY    65  58  78 SW7       29.84R
Augusta-Daniel MOCLDY    65  58  78 W3        29.85R
Swainsboro     CLOUDY    64  59  82 W5        29.88R
Vidalia        CLOUDY    68  59  73 W5        29.89R
Eastman        CLOUDY    67  49  53 W6        29.92R
Hazlehurst     FAIR      67  53  61 CALM      29.89R
Alma           FAIR      64  55  72 W3        29.90R
Waycross       CLOUDY    69  56  63 W3        29.91R
Jesup          CLOUDY    70  54  56 CALM      29.90
Baxley         CLOUDY    64  54  68 CALM      29.90R
Brunswick      FAIR      63  54  72 CALM      29.90R
Saint Simons   FAIR      68  57  68 CALM      29.89R

$$

SCZ027-028-034-036>038-045-046-048>050-GAZ119-141-250300-
...Lake and Supplemental Coastal Observations...

STATION/POSITION TIME  TEMP    WIND        PRES    WAVE   SWELL
                       AIR SEA DIR/SP/G            HT/PER HT/PER/DIR
                 (UTC) (F)     (DEG/KT/KT) (MB)    (FT/S) (FT/S/D)
Winyah Bay       0045   66     210/ 12     1009.0
Lake Murray      0120   65     190/  2/  3 1008.5
ACE Basin NERRS  0045   66        CALM       N/A
Fort Pulaski     0148   69 66  250/  5/  7 1011.9R
Sapelo Island    0100   67     240/  3     1011.0

$$

ANZ835-935-AMZ111-154-330-350-352-354-370-450-454-472-250300-
...C-MAN and Buoy Observations...

STATION/POSITION TIME  TEMP    WIND        PRES    WAVE   SWELL
                       AIR SEA DIR/SP/G            HT/PER HT/PER/DIR
                 (UTC) (F)     (DEG/KT/KT) (MB)    (FT/S) (FT/S/D)
Buoy 41004       0150      69  200/ 14/ 17 1010.9R   9/ 9   8/120/ 9
Buoy 41008       0150   69 66  250/ 10/ 12 1011.6R   4/ 9   3/ 90/ 9
Folly Beach CMAN 0100   67     210/ 17/ 19 1010.9
Capers Nearshore 0108   67 64  230/ 16/ 21 1009.5R
Fripp Nearshore  0108   66 65  220/ 10/ 14 1010.4R


STATION/POSITION TIME  TEMP    WIND        PRES    WAVE   SWELL
                       AIR SEA DIR/SP/G            HT/PER HT/PER/DIR
                 (UTC) (F)     (DEG/KT/KT) (MB)    (FT/S) (FT/S/D)
5E St. Marys GA  0130      68                N/A     3/ 9   2/100/11
Frying Pan Buoy  0150   70 70  200/ 17/ 21 1010.7R   9/11   7/120/11
Buoy 41025       0150   70 70  170/ 14/ 19 1011.8F  12/10  13/140/10
Cape Lookout NC  0100          120/ 18/ 20 1011.4
Buoy 41002       0150   72 73  160/ 21/ 27 1014.0R  10/ 8   7/150/ 8
Buoy 41010       0150   76 76  160/ 17/ 21 1013.5R   7/ 9   7/ 80/ 9
St Augustine FL  0200   69 67  240/  7/ 10 1013.8R


$$



USA.gov is the U.S. government's official web portal to all federal, state and local government web resources and services.